United Tenorio — A8UB9 — position and weather

sailwx.info

Track history (hours):
 
Tides and Currents Weather Stations Pressure Air Temp Water Temp Dewpoint Dewpoint Depression Visibility Wind Speed Wind Dir Waves Ship Positions

United Tenorio

Last reported at 2014-Oct-30 04:33 UTC. Time now 2014-Oct-30 15:56 UTC.
Position N 41°21' E 029°39'.

Length 174 m; draft 10.9 m.

Type: Cargo ship. MMSI: 636091880.

Date/timePositionNaut miles runAvg speedWind from/ knotsBaromVisibWave heightAir tempDewpointWater temp
2014-Oct-30 04:33N 41°21' E 029°39'10 9.8
2014-Oct-30 03:33N 41°18' E 029°26'30 7.4
2014-Oct-29 23:30N 40°57' E 028°59'6 6.6
2014-Oct-29 22:33N 40°52' E 028°53'5 4.6
2014-Oct-29 21:22N 40°47' E 028°52'6 7.1
2014-Oct-29 20:27N 40°41' E 028°47'1 0.7
2014-Oct-29 19:29N 40°42' E 028°48'1 1.2
2014-Oct-29 18:33N 40°43' E 028°49'2 1.6
2014-Oct-29 17:33N 40°44' E 028°50'2 2.1
2014-Oct-29 16:24N 40°46' E 028°52'3 2.3
2014-Oct-29 15:03N 40°48' E 028°54'5 4.9
2014-Oct-29 14:07N 40°45' E 028°50'2 0.8
2014-Oct-29 11:29N 40°47' E 028°51'2 1.8
2014-Oct-29 10:22N 40°48' E 028°53'1 1.4
2014-Oct-29 09:32N 40°49' E 028°54'250 8.0
2014-Oct-28 02:27N 38°09' E 024°45'43 8.5
2014-Oct-27 21:22N 37°35' E 024°11'  
2014-Oct-21 23:33N 36°03' W 005°18'6 4.3
2014-Oct-21 22:08N 36°08' W 005°22'0 0.1
2014-Oct-21 21:32N 36°08' W 005°22'0 0.1
2014-Oct-21 20:17N 36°08' W 005°22'0 0.0
2014-Oct-21 19:24N 36°08' W 005°22'0 0.1
2014-Oct-21 18:33N 36°08' W 005°22'0 0.2
2014-Oct-21 17:33N 36°08' W 005°22'5 4.7
2014-Oct-21 16:33N 36°04' W 005°19'4 4.3
2014-Oct-21 15:33N 36°00' W 005°17'12310.3
2014-Oct-21 03:33N 34°37' W 007°09'  
Track history (hours):
 
Tides and Currents Weather Stations Pressure Air Temp Water Temp Dewpoint Dewpoint Depression Visibility Wind Speed Wind Dir Waves Ship Positions

United Tenorio

Last reported at 2014-Oct-30 04:33 UTC. Time now 2014-Oct-30 15:56 UTC.
Position N 41°21' E 029°39'.

Length 174 m; draft 10.9 m.

Type: Cargo ship. MMSI: 636091880.

Date/timePositionNaut miles runAvg speedWind from/ knotsBaromVisibWave heightAir tempDewpointWater temp
2014-Oct-30 04:33N 41°21' E 029°39'10 9.8
2014-Oct-30 03:33N 41°18' E 029°26'30 7.4
2014-Oct-29 23:30N 40°57' E 028°59'6 6.6
2014-Oct-29 22:33N 40°52' E 028°53'5 4.6
2014-Oct-29 21:22N 40°47' E 028°52'6 7.1
2014-Oct-29 20:27N 40°41' E 028°47'1 0.7
2014-Oct-29 19:29N 40°42' E 028°48'1 1.2
2014-Oct-29 18:33N 40°43' E 028°49'2 1.6
2014-Oct-29 17:33N 40°44' E 028°50'2 2.1
2014-Oct-29 16:24N 40°46' E 028°52'3 2.3
2014-Oct-29 15:03N 40°48' E 028°54'5 4.9
2014-Oct-29 14:07N 40°45' E 028°50'2 0.8
2014-Oct-29 11:29N 40°47' E 028°51'2 1.8
2014-Oct-29 10:22N 40°48' E 028°53'1 1.4
2014-Oct-29 09:32N 40°49' E 028°54'250 8.0
2014-Oct-28 02:27N 38°09' E 024°45'43 8.5
2014-Oct-27 21:22N 37°35' E 024°11'  
2014-Oct-21 23:33N 36°03' W 005°18'6 4.3
2014-Oct-21 22:08N 36°08' W 005°22'0 0.1
2014-Oct-21 21:32N 36°08' W 005°22'0 0.1
2014-Oct-21 20:17N 36°08' W 005°22'0 0.0
2014-Oct-21 19:24N 36°08' W 005°22'0 0.1
2014-Oct-21 18:33N 36°08' W 005°22'0 0.2
2014-Oct-21 17:33N 36°08' W 005°22'5 4.7
2014-Oct-21 16:33N 36°04' W 005°19'4 4.3
2014-Oct-21 15:33N 36°00' W 005°17'12310.3
2014-Oct-21 03:33N 34°37' W 007°09'  

Dump ship's entire track history